This is the latest recevied weather packets stored in our database for station/object SA6BET-2. If no packets are shown the sender has not sent any weather packets the latest 10 day(s).
| Time | Temp. | Humidity | Pressure | Rain* | Wind** | Luminosity | Snow |
|---|---|---|---|---|---|---|---|
| 1787836928 | 36.11° C | 68% | 1013.4 hPa | - | - | - | - |
| 1787836028 | 36.67° C | 67% | 1013.5 hPa | - | - | - | - |
| 1787835127 | 33.89° C | 73% | 1013.4 hPa | - | - | - | - |
| 1787834227 | 33.33° C | 82% | 1013.4 hPa | - | - | - | - |
| 1787833327 | 35° C | 92% | 1013.6 hPa | - | - | - | - |
| 1787832427 | 36.67° C | 82% | 1013.8 hPa | - | - | - | - |
| 1787831527 | 35° C | 96% | 1013.8 hPa | - | - | - | - |
| 1787830763 | 34.44° C | 100% | 1013.8 hPa | - | - | - | - |
| 1787830627 | 34.44° C | 100% | 1013.8 hPa | - | - | - | - |
| 1787829726 | 31.67° C | 100% | 1014.4 hPa | - | - | - | - |
| 1787828826 | 33.89° C | 100% | 1014.7 hPa | - | - | - | - |
| 1787827926 | 32.22° C | 100% | 1014.9 hPa | - | - | - | - |
| 1787827026 | 32.22° C | 100% | 1015 hPa | - | - | - | - |
| 1787826126 | 32.22° C | 100% | 1015.2 hPa | - | - | - | - |
| 1787825225 | 32.22° C | 100% | 1015.4 hPa | - | - | - | - |
| 1787824325 | 30.56° C | 100% | 1015.5 hPa | - | - | - | - |
| 1787823425 | 28.89° C | 100% | 1015.2 hPa | - | - | - | - |
| 1787822525 | 28.89° C | 100% | 1015.2 hPa | - | - | - | - |
| 1787821625 | 28.33° C | 100% | 1015 hPa | - | - | - | - |
| 1787820725 | 28.89° C | 100% | 1014.9 hPa | - | - | - | - |
| 1787819824 | 27.22° C | 100% | 1014.8 hPa | - | - | - | - |
| 1787818924 | 26.11° C | 100% | 1014.9 hPa | - | - | - | - |
| 1787818024 | 26.67° C | 100% | 1014.8 hPa | - | - | - | - |
| 1787817124 | 26.11° C | 100% | 1014.8 hPa | - | - | - | - |
| 1787816224 | 25.56° C | 100% | 1014.8 hPa | - | - | - | - |
* Rain since midnight (hover to see other rain measurements)
** Current wind speed in m/s (hover to see current wind gust speed)